Location: Prosper
(33.2362°N, 96.8011°W)
Time: 11:11:59
(UTC+00:00)

Daily predictions for brighter satellites

Satellite Brightness Start Highest point End
(mag) Time Altitude Azimuth Time Altitude Azimuth Time Altitude Azimuth
YAOGAN 6 4.4 12:05:35 16° WSW 12:05:35 16° WSW 12:06:34 10° SW
CZ-4B R/B 3.7 12:01:30 10° NNE 12:04:58 47° E 12:08:26 10° S
Cosmos 1408 Rocket 3.9 12:02:09 10° S 12:06:24 67° E 12:10:40 10° NNE
OAO 3 Rocket 4.1 12:06:12 19° W 12:09:12 37° SSW 12:13:45 10° SE
BREEZE-M DEB 2.7 12:11:17 17° WSW 12:13:14 61° NW 12:19:14 10° NE
OE (NEXTSAT) 4.2 12:12:45 22° WNW 12:14:48 77° SW 12:18:12 10° SE
USA 215 3.9 12:08:54 10° ESE 12:15:11 52° NE 12:21:29 10° NNW
Cosmos 836 Rocket 4.4 12:10:42 10° NNW 12:15:57 82° WSW 12:21:09 10° SSE
Cosmos 2279 Rocket 3.9 12:11:04 10° N 12:17:14 72° W 12:23:22 10° S
Cosmos 1867 4.3 12:13:50 16° NW 12:17:25 33° WSW 12:22:14 10° S
Nadezhda 4 Rocket 4.1 12:14:07 10° S 12:20:14 80° E 12:26:27 10° N
Cosmos 1503 Rocket 4.3 12:17:49 10° SW 12:22:46 43° WNW 12:27:48 10° N
DMSP B5D2-2 4.4 12:20:00 10° SSE 12:25:11 71° ENE 12:30:22 10° N
Cosmos 1656 Rocket 4.4 12:22:11 10° WSW 12:26:45 27° WNW 12:31:21 10° N
Cosmos 1515 Rocket 3.9 12:25:02 10° N 12:29:23 70° E 12:33:41 10° SSE
SJ 16-02 1.4 12:26:06 10° SSW 12:30:29 84° ESE 12:34:52 10° NNE
CZ-2C R/B 3.2 12:26:30 10° SSW 12:31:36 37° W 12:36:38 10° NNW
Cosmos 1340 Rocket 3.1 12:29:15 10° S 12:33:08 71° E 12:37:05 10° NNE
Cosmos 1777 Rocket 3.9 12:28:52 10° SSW 12:34:03 80° WNW 12:39:18 10° NNE
BREEZE-M DEB (TANK) 3.7 12:19:09 10° NW 12:34:16 73° SW 12:38:33 10° SE
SL-27 R/B 4.3 12:31:34 10° N 12:34:48 32° ENE 12:37:58 10° SE
Cosmos 1500 Rocket 3.6 12:38:16 10° S 12:42:42 82° W 12:47:11 10° N
Cosmos 1939 Rocket 2.7 12:43:34 10° N 12:47:26 65° WNW 12:51:16 10° SSW
NOAA 6 4.2 12:43:08 10° NNE 12:48:16 83° ESE 12:53:23 10° SSW
Cosmos 773 Rocket 4.3 12:43:38 10° NNW 12:48:50 72° ENE 12:53:58 10° SSE
CORIOLIS 4.5 12:44:50 10° NNE 12:50:18 76° ESE 12:55:43 10° S
Cosmos 1763 Rocket 4.2 23:38:54 10° SSW 23:43:51 56° WNW 23:48:51 10° N
Aurora 2 Rocket 4.3 23:40:38 10° WSW 23:44:43 33° S 23:50:18 10° ESE
Cosmos 841 Rocket 3.5 23:44:28 10° S 23:49:33 64° ESE 23:54:39 10° NNE
Cosmos 1697 Rocket 3.0 23:47:56 10° N 23:53:15 42° ENE 23:58:31 10° SE
Cosmos 1602 4.1 23:50:30 10° N 23:54:11 42° E 23:57:52 10° SSE
Cosmos 1782 2.9 23:50:28 10° S 23:54:23 57° E 23:58:18 10° NNE
Okean O Rocket 3.1 23:53:39 10° ESE 23:56:28 17° ENE 23:59:18 10° NNE
